| time (UTC) | temp F | wind direction | speed MPH | gust MPH | rain 1hr in | rain 24hr in | rain mn in | humidity % | barometer mb |
| 20260506090929 | 53 | 214 | 0.0 | 0.0 | 0.00 | 0.00 | 0.00 | 98 | 1018.4 |
| 20260506090426 | 53 | 213 | 0.0 | 0.0 | 0.00 | 0.00 | 0.00 | 98 | 1018.5 |
| 20260506085923 | 53 | 214 | 0.0 | 0.0 | 0.00 | 0.00 | 0.00 | 97 | 1018.5 |
| 20260506085420 | 53 | 214 | 0.0 | 0.0 | 0.00 | 0.00 | 0.00 | 97 | 1018.5 |
| 20260506084916 | 53 | 222 | 0.0 | 0.0 | 0.00 | 0.00 | 0.00 | 97 | 1018.4 |
| 20260506084413 | 53 | 225 | 0.0 | 0.0 | 0.00 | 0.00 | 0.00 | 96 | 1018.6 |
| 20260506083909 | 53 | 235 | 0.0 | 0.0 | 0.00 | 0.00 | 0.00 | 96 | 1018.6 |
| 20260506083407 | 53 | 233 | 0.0 | 0.0 | 0.00 | 0.00 | 0.00 | 97 | 1018.5 |
| 20260506082904 | 53 | 229 | 0.0 | 0.0 | 0.00 | 0.00 | 0.00 | 97 | 1018.4 |
| 20260506082401 | 53 | 229 | 0.0 | 0.0 | 0.00 | 0.00 | 0.00 | 97 | 1018.4 |
| 20260506081856 | 53 | 225 | 0.0 | 0.0 | 0.00 | 0.00 | 0.00 | 96 | 1018.4 |
| 20260506081355 | 53 | 224 | 0.0 | 0.0 | 0.00 | 0.00 | 0.00 | 96 | 1018.5 |
| 20260506080852 | 53 | 221 | 0.0 | 0.0 | 0.00 | 0.00 | 0.00 | 95 | 1018.4 |
| 20260506080349 | 53 | 226 | 0.0 | 0.0 | 0.00 | 0.00 | 0.00 | 95 | 1018.5 |
| 20260506073333 | 54 | 228 | 0.0 | 1.0 | 0.00 | 0.00 | 0.00 | 94 | 1018.2 |
| 20260506072829 | 54 | 235 | 0.0 | 0.0 | 0.00 | 0.00 | 0.00 | 93 | 1018.2 |
| 20260506072327 | 54 | 232 | 0.0 | 0.0 | 0.00 | 0.00 | 0.00 | 92 | 1018.0 |
| 20260506071825 | 54 | 188 | 0.0 | 0.0 | 0.00 | 0.00 | 0.00 | 92 | 1017.9 |
| 20260506071323 | 54 | 233 | 0.0 | 0.0 | 0.00 | 0.00 | 0.00 | 92 | 1017.9 |
| 20260506070819 | 54 | 224 | 0.0 | 0.0 | 0.00 | 0.00 | 0.00 | 93 | 1018.0 |
| 20260506070316 | 54 | 220 | 0.0 | 0.0 | 0.00 | 0.00 | 0.00 | 92 | 1017.9 |
| 20260506062253 | 54 | 231 | 0.0 | 0.0 | 0.00 | 0.01 | 0.01 | 92 | 1017.7 |
| 20260506061744 | 54 | 232 | 0.0 | 0.0 | 0.00 | 0.01 | 0.01 | 93 | 1017.5 |
| 20260506061241 | 54 | 227 | 0.0 | 0.0 | 0.00 | 0.01 | 0.01 | 93 | 1017.5 |
| 20260506060740 | 54 | 231 | 0.0 | 0.0 | 0.00 | 0.01 | 0.01 | 93 | 1017.6 |
| 20260506060237 | 54 | 220 | 0.0 | 0.0 | 0.00 | 0.01 | 0.01 | 93 | 1017.6 |
| 20260506051209 | 54 | 221 | 0.0 | 0.0 | 0.00 | 0.01 | 0.01 | 90 | 1017.1 |
| 20260506050707 | 54 | 227 | 0.0 | 0.0 | 0.00 | 0.01 | 0.01 | 90 | 1017.0 |
| 20260506050204 | 54 | 208 | 0.0 | 0.0 | 0.00 | 0.01 | 0.01 | 90 | 1016.9 |
| 20260506044655 | 54 | 225 | 0.0 | 0.0 | 0.00 | 0.01 | 0.01 | 91 | 1016.9 |
| 20260506044151 | 54 | 221 | 0.0 | 0.0 | 0.00 | 0.01 | 0.01 | 91 | 1016.7 |
| 20260506043649 | 54 | 211 | 0.0 | 0.0 | 0.00 | 0.01 | 0.01 | 91 | 1016.8 |
| 20260506043146 | 55 | 211 | 0.0 | 0.0 | 0.00 | 0.01 | 0.01 | 91 | 1016.8 |
| 20260506042646 | 55 | 204 | 0.0 | 0.0 | 0.00 | 0.01 | 0.01 | 90 | 1016.7 |
| 20260506042143 | 55 | 202 | 0.0 | 0.0 | 0.00 | 0.01 | 0.01 | 90 | 1016.8 |
| 20260506041641 | 55 | 225 | 0.0 | 0.0 | 0.00 | 0.01 | 0.01 | 90 | 1016.8 |
| 20260506041137 | 55 | 224 | 0.0 | 0.0 | 0.00 | 0.01 | 0.01 | 90 | 1016.5 |
| 20260506040635 | 55 | 224 | 0.0 | 0.0 | 0.00 | 0.01 | 0.01 | 90 | 1016.5 |
| 20260506040132 | 55 | 220 | 0.0 | 0.0 | 0.00 | 0.01 | 0.01 | 90 | 1016.3 |
| 20260506035629 | 55 | 212 | 0.0 | 0.0 | 0.00 | 0.01 | 0.01 | 90 | 1016.2 |
| 20260506035126 | 55 | 178 | 1.0 | 2.0 | 0.00 | 0.01 | 0.01 | 90 | 1016.1 |
| 20260506034623 | 54 | 183 | 0.0 | 1.0 | 0.00 | 0.01 | 0.01 | 91 | 1016.1 |
| 20260506034120 | 55 | 228 | 0.0 | 0.0 | 0.00 | 0.01 | 0.01 | 92 | 1016.0 |
| 20260506033617 | 55 | 205 | 1.0 | 1.0 | 0.00 | 0.01 | 0.01 | 91 | 1016.0 |
| 20260506033114 | 55 | 167 | 1.0 | 1.0 | 0.00 | 0.01 | 0.01 | 91 | 1016.1 |
| 20260506032611 | 55 | 170 | 1.0 | 1.0 | 0.00 | 0.01 | 0.01 | 90 | 1016.1 |
| 20260506032108 | 55 | 182 | 0.0 | 0.0 | 0.00 | 0.01 | 0.01 | 90 | 1016.1 |
| 20260506031605 | 55 | 212 | 0.0 | 1.0 | 0.00 | 0.01 | 0.01 | 88 | 1016.1 |
| 20260506031101 | 55 | 200 | 0.0 | 1.0 | 0.00 | 0.01 | 0.01 | 88 | 1015.8 |
| 20260506030600 | 55 | 212 | 1.0 | 1.0 | 0.00 | 0.01 | 0.01 | 89 | 1015.8 |
| 20260506030057 | 55 | 214 | 0.0 | 2.0 | 0.00 | 0.01 | 0.01 | 90 | 1015.7 |
| 20260506025554 | 55 | 196 | 0.0 | 2.0 | 0.00 | 0.01 | 0.01 | 89 | 1015.7 |
| 20260506025049 | 55 | 172 | 0.0 | 0.0 | 0.00 | 0.01 | 0.01 | 89 | 1015.5 |
| 20260506024547 | 55 | 157 | 1.0 | 1.0 | 0.00 | 0.01 | 0.01 | 88 | 1015.5 |
| 20260506024043 | 55 | 189 | 0.0 | 1.0 | 0.00 | 0.01 | 0.01 | 87 | 1015.3 |
| 20260506023539 | 55 | 163 | 0.0 | 2.0 | 0.00 | 0.01 | 0.01 | 87 | 1015.4 |
| 20260506023037 | 55 | 173 | 1.0 | 2.0 | 0.00 | 0.01 | 0.01 | 88 | 1015.4 |
| 20260506022534 | 56 | 149 | 1.0 | 2.0 | 0.00 | 0.01 | 0.01 | 88 | 1015.5 |
| 20260506022032 | 56 | 194 | 0.0 | 2.0 | 0.00 | 0.01 | 0.01 | 88 | 1015.3 |
| 20260506021529 | 56 | 171 | 0.0 | 2.0 | 0.00 | 0.01 | 0.01 | 87 | 1015.1 |
| 20260506021026 | 56 | 153 | 0.0 | 2.0 | 0.00 | 0.01 | 0.01 | 87 | 1015.3 |
| 20260506020524 | 56 | 197 | 0.0 | 2.0 | 0.00 | 0.01 | 0.01 | 86 | 1015.2 |
| 20260506020021 | 56 | 221 | 0.0 | 3.0 | 0.00 | 0.01 | 0.01 | 86 | 1014.9 |
| 20260506015518 | 56 | 151 | 1.0 | 2.0 | 0.00 | 0.01 | 0.01 | 86 | 1014.9 |
| 20260506015015 | 56 | 153 | 0.0 | 3.0 | 0.00 | 0.01 | 0.01 | 85 | 1014.9 |
| 20260506014513 | 56 | 149 | 1.0 | 4.0 | 0.00 | 0.01 | 0.01 | 85 | 1014.9 |
| 20260506014008 | 56 | 181 | 2.0 | 4.0 | 0.00 | 0.01 | 0.01 | 85 | 1015.0 |
| 20260506013507 | 56 | 170 | 1.0 | 3.0 | 0.00 | 0.01 | 0.01 | 84 | 1014.8 |
| 20260506013003 | 57 | 145 | 1.0 | 4.0 | 0.00 | 0.01 | 0.01 | 84 | 1015.0 |
| 20260506012459 | 57 | 189 | 1.0 | 4.0 | 0.00 | 0.01 | 0.01 | 84 | 1014.9 |
| 20260506011956 | 57 | 152 | 1.0 | 3.0 | 0.00 | 0.01 | 0.01 | 83 | 1015.2 |
| 20260506011453 | 57 | 105 | 2.0 | 4.0 | 0.00 | 0.01 | 0.01 | 82 | 1015.0 |
| 20260506010950 | 58 | 148 | 1.0 | 3.0 | 0.00 | 0.01 | 0.01 | 83 | 1015.1 |
| 20260506010449 | 57 | 196 | 1.0 | 2.0 | 0.00 | 0.01 | 0.01 | 83 | 1015.0 |
| 20260506005945 | 58 | 203 | 0.0 | 1.0 | 0.00 | 0.01 | 0.01 | 81 | 1015.1 |
| 20260506005444 | 58 | 163 | 0.0 | 1.0 | 0.00 | 0.01 | 0.01 | 79 | 1015.0 |
| 20260506004944 | 58 | 226 | 0.0 | 1.0 | 0.00 | 0.01 | 0.01 | 81 | 1015.1 |
| 20260506004442 | 58 | 189 | 0.0 | 1.0 | 0.00 | 0.01 | 0.01 | 81 | 1015.0 |
| 20260506003937 | 58 | 151 | 1.0 | 3.0 | 0.00 | 0.01 | 0.01 | 78 | 1015.0 |
| 20260506003434 | 58 | 164 | 0.0 | 1.0 | 0.00 | 0.01 | 0.01 | 80 | 1015.1 |
| 20260506002931 | 58 | 163 | 1.0 | 1.0 | 0.00 | 0.01 | 0.01 | 81 | 1015.0 |
| 20260506002427 | 58 | 192 | 1.0 | 4.0 | 0.00 | 0.01 | 0.01 | 81 | 1014.8 |
| 20260506001922 | 58 | 154 | 1.0 | 2.0 | 0.00 | 0.01 | 0.01 | 83 | 1015.0 |
| 20260506001420 | 58 | 202 | 0.0 | 1.0 | 0.00 | 0.01 | 0.01 | 80 | 1014.7 |
| 20260506000917 | 58 | 151 | 1.0 | 1.0 | 0.00 | 0.01 | 0.01 | 80 | 1014.5 |
| 20260506000416 | 57 | 156 | 0.0 | 1.0 | 0.00 | 0.01 | 0.01 | 81 | 1014.8 |
| 20260505235911 | 58 | 199 | 1.0 | 3.0 | 0.00 | 0.01 | 0.01 | 79 | 1014.5 |
| 20260505235409 | 58 | 188 | 1.0 | 2.0 | 0.00 | 0.01 | 0.01 | 80 | 1014.8 |
| 20260505234906 | 58 | 154 | 0.0 | 2.0 | 0.00 | 0.01 | 0.01 | 79 | 1014.8 |
| 20260505234403 | 58 | 217 | 0.0 | 1.0 | 0.00 | 0.01 | 0.01 | 80 | 1014.7 |
| 20260505233900 | 59 | 176 | 0.0 | 1.0 | 0.00 | 0.01 | 0.01 | 80 | 1014.8 |
| 20260505233358 | 58 | 242 | 0.0 | 0.0 | 0.00 | 0.01 | 0.01 | 76 | 1014.6 |
| 20260505232855 | 58 | 233 | 0.0 | 2.0 | 0.00 | 0.01 | 0.01 | 75 | 1014.7 |
| 20260505232353 | 58 | 213 | 0.0 | 1.0 | 0.00 | 0.01 | 0.01 | 78 | 1014.7 |
| 20260505231849 | 57 | 222 | 0.0 | 1.0 | 0.00 | 0.01 | 0.01 | 78 | 1014.8 |
| 20260505231347 | 58 | 235 | 1.0 | 1.0 | 0.00 | 0.01 | 0.01 | 78 | 1014.9 |
| 20260505230845 | 57 | 209 | 0.0 | 1.0 | 0.00 | 0.01 | 0.01 | 77 | 1014.7 |
| 20260505230342 | 57 | 236 | 0.0 | 1.0 | 0.00 | 0.01 | 0.01 | 78 | 1014.8 |
| 20260505225839 | 58 | 261 | 0.0 | 1.0 | 0.00 | 0.01 | 0.01 | 77 | 1014.8 |
| 20260505225336 | 57 | 245 | 0.0 | 1.0 | 0.00 | 0.01 | 0.01 | 79 | 1014.8 |
| 20260505224830 | 58 | 249 | 2.0 | 2.0 | 0.00 | 0.01 | 0.01 | 78 | 1014.9 |
| 20260505224329 | 57 | 239 | 0.0 | 0.0 | 0.00 | 0.01 | 0.01 | 80 | 1014.8 |
| 20260505223826 | 57 | 241 | 0.0 | 0.0 | 0.00 | 0.01 | 0.01 | 80 | 1014.9 |
| 20260505223323 | 56 | 268 | 1.0 | 1.0 | 0.00 | 0.01 | 0.01 | 81 | 1014.7 |
| 20260505222818 | 57 | 240 | 2.0 | 3.0 | 0.00 | 0.01 | 0.01 | 80 | 1014.9 |
| 20260505222315 | 57 | 245 | 0.0 | 3.0 | 0.00 | 0.01 | 0.01 | 81 | 1015.0 |
| 20260505221812 | 57 | 243 | 0.0 | 1.0 | 0.00 | 0.01 | 0.01 | 82 | 1014.9 |
| 20260505221308 | 58 | 272 | 1.0 | 1.0 | 0.00 | 0.01 | 0.01 | 78 | 1014.9 |
| 20260505220805 | 57 | 239 | 0.0 | 0.0 | 0.00 | 0.01 | 0.01 | 81 | 1015.0 |
| 20260505220303 | 56 | 241 | 0.0 | 1.0 | 0.00 | 0.01 | 0.01 | 82 | 1014.9 |
| 20260505215801 | 57 | 268 | 1.0 | 2.0 | 0.00 | 0.01 | 0.01 | 81 | 1015.1 |
| 20260505215258 | 57 | 241 | 0.0 | 1.0 | 0.00 | 0.01 | 0.01 | 81 | 1015.2 |
| 20260505214756 | 57 | 278 | 0.0 | 0.0 | 0.00 | 0.01 | 0.01 | 81 | 1015.1 |
| 20260505214253 | 57 | 268 | 0.0 | 2.0 | 0.00 | 0.01 | 0.01 | 82 | 1015.1 |
| 20260505213750 | 57 | 248 | 0.0 | 0.0 | 0.00 | 0.01 | 0.01 | 82 | 1015.4 |
| 20260505213248 | 57 | 240 | 1.0 | 1.0 | 0.00 | 0.01 | 0.01 | 83 | 1015.2 |
| 20260505212743 | 57 | 240 | 0.0 | 1.0 | 0.00 | 0.01 | 0.01 | 83 | 1015.2 |
| 20260505212241 | 57 | 252 | 1.0 | 3.0 | 0.00 | 0.01 | 0.01 | 81 | 1015.2 |
| 20260505211738 | 57 | 255 | 1.0 | 4.0 | 0.00 | 0.01 | 0.01 | 81 | 1015.3 |
| 20260505211235 | 58 | 256 | 1.0 | 1.0 | 0.00 | 0.01 | 0.01 | 80 | 1015.2 |
| 20260505210731 | 57 | 244 | 0.0 | 0.0 | 0.00 | 0.01 | 0.01 | 81 | 1015.1 |
| 20260505210228 | 56 | 258 | 0.0 | 0.0 | 0.00 | 0.01 | 0.01 | 82 | 1014.9 |
| 20260505205726 | 57 | 283 | 3.0 | 3.0 | 0.00 | 0.01 | 0.01 | 82 | 1015.2 |
| 20260505205224 | 57 | 245 | 0.0 | 1.0 | 0.00 | 0.01 | 0.01 | 82 | 1015.0 |
| 20260505204720 | 57 | 239 | 0.0 | 0.0 | 0.00 | 0.01 | 0.01 | 82 | 1014.9 |
| 20260505204218 | 56 | 245 | 0.0 | 1.0 | 0.00 | 0.01 | 0.01 | 83 | 1015.0 |
| 20260505203715 | 56 | 243 | 0.0 | 2.0 | 0.00 | 0.01 | 0.01 | 80 | 1015.0 |
| 20260505203212 | 57 | 262 | 1.0 | 2.0 | 0.00 | 0.01 | 0.01 | 81 | 1014.9 |
| 20260505202707 | 57 | 237 | 0.0 | 0.0 | 0.00 | 0.01 | 0.01 | 81 | 1014.9 |
| 20260505202204 | 57 | 240 | 0.0 | 0.0 | 0.00 | 0.01 | 0.01 | 80 | 1015.0 |
| 20260505201700 | 56 | 254 | 0.0 | 0.0 | 0.00 | 0.01 | 0.01 | 82 | 1015.1 |
| 20260505201158 | 56 | 283 | 1.0 | 3.0 | 0.00 | 0.01 | 0.01 | 81 | 1015.1 |
| 20260505200656 | 56 | 280 | 1.0 | 2.0 | 0.00 | 0.01 | 0.01 | 81 | 1015.0 |
| 20260505200153 | 57 | 269 | 1.0 | 1.0 | 0.00 | 0.01 | 0.01 | 82 | 1015.1 |
| 20260505195648 | 57 | 246 | 0.0 | 2.0 | 0.00 | 0.01 | 0.01 | 81 | 1015.1 |
| 20260505195146 | 57 | 233 | 0.0 | 1.0 | 0.00 | 0.01 | 0.01 | 80 | 1015.1 |
| 20260505194643 | 57 | 249 | 1.0 | 2.0 | 0.00 | 0.01 | 0.01 | 80 | 1015.2 |
| 20260505194139 | 57 | 263 | 1.0 | 2.0 | 0.00 | 0.01 | 0.01 | 82 | 1015.1 |
| 20260505193636 | 57 | 230 | 1.0 | 1.0 | 0.00 | 0.01 | 0.01 | 81 | 1015.0 |
| 20260505193133 | 56 | 274 | 1.0 | 2.0 | 0.00 | 0.01 | 0.01 | 81 | 1015.2 |
| 20260505192632 | 56 | 237 | 2.0 | 2.0 | 0.00 | 0.01 | 0.01 | 81 | 1015.2 |
| 20260505192129 | 56 | 218 | 0.0 | 1.0 | 0.00 | 0.01 | 0.01 | 83 | 1015.2 |
| 20260505191627 | 56 | 244 | 0.0 | 1.0 | 0.00 | 0.01 | 0.01 | 81 | 1015.0 |
| 20260505191125 | 56 | 255 | 1.0 | 3.0 | 0.00 | 0.01 | 0.01 | 81 | 1015.2 |
| 20260505190620 | 55 | 241 | 1.0 | 2.0 | 0.00 | 0.01 | 0.01 | 83 | 1015.1 |
| 20260505190115 | 55 | 246 | 1.0 | 2.0 | 0.00 | 0.01 | 0.01 | 83 | 1015.1 |
| 20260505185613 | 56 | 230 | 1.0 | 2.0 | 0.00 | 0.01 | 0.01 | 80 | 1015.1 |
| 20260505185109 | 56 | 239 | 0.0 | 2.0 | 0.00 | 0.01 | 0.01 | 81 | 1015.2 |
| 20260505184605 | 55 | 256 | 0.0 | 1.0 | 0.00 | 0.01 | 0.01 | 84 | 1015.0 |
| 20260505184102 | 56 | 246 | 0.0 | 1.0 | 0.00 | 0.01 | 0.01 | 83 | 1015.1 |
| 20260505183559 | 56 | 241 | 0.0 | 1.0 | 0.00 | 0.01 | 0.01 | 82 | 1015.0 |
| 20260505183057 | 56 | 243 | 0.0 | 0.0 | 0.00 | 0.01 | 0.01 | 82 | 1015.2 |
| 20260505182552 | 56 | 225 | 1.0 | 1.0 | 0.00 | 0.01 | 0.01 | 80 | 1015.0 |
| 20260505182049 | 57 | 251 | 0.0 | 3.0 | 0.00 | 0.01 | 0.01 | 80 | 1015.1 |
| 20260505181546 | 56 | 249 | 1.0 | 1.0 | 0.00 | 0.01 | 0.01 | 81 | 1015.0 |
| 20260505181044 | 56 | 206 | 1.0 | 1.0 | 0.00 | 0.01 | 0.01 | 81 | 1015.0 |
| 20260505180539 | 55 | 241 | 0.0 | 0.0 | 0.00 | 0.01 | 0.01 | 82 | 1014.8 |
| 20260505180037 | 55 | 198 | 1.0 | 2.0 | 0.00 | 0.01 | 0.01 | 82 | 1014.9 |
| 20260505175537 | 55 | 161 | 2.0 | 2.0 | 0.00 | 0.01 | 0.01 | 84 | 1014.9 |
| 20260505175034 | 55 | 204 | 0.0 | 1.0 | 0.00 | 0.01 | 0.01 | 86 | 1014.9 |
| 20260505174531 | 55 | 201 | 2.0 | 3.0 | 0.00 | 0.01 | 0.01 | 83 | 1014.8 |
| 20260505174027 | 56 | 181 | 2.0 | 3.0 | 0.00 | 0.01 | 0.01 | 84 | 1014.6 |
| 20260505173524 | 54 | 129 | 1.0 | 2.0 | 0.00 | 0.01 | 0.01 | 88 | 1014.8 |
| 20260505173021 | 54 | 229 | 1.0 | 3.0 | 0.00 | 0.01 | 0.01 | 89 | 1014.6 |
| 20260505172519 | 54 | 149 | 1.0 | 2.0 | 0.00 | 0.01 | 0.01 | 87 | 1014.7 |
| 20260505172015 | 54 | 175 | 1.0 | 1.0 | 0.00 | 0.01 | 0.01 | 93 | 1014.6 |
| 20260505171510 | 53 | 184 | 0.0 | 2.0 | 0.00 | 0.01 | 0.01 | 92 | 1014.8 |
| 20260505171007 | 52 | 149 | 0.0 | 2.0 | 0.00 | 0.01 | 0.01 | 95 | 1014.7 |
| 20260505170504 | 53 | 152 | 2.0 | 2.0 | 0.00 | 0.01 | 0.01 | 96 | 1014.7 |
| 20260505165959 | 51 | 196 | 0.0 | 3.0 | 0.00 | 0.01 | 0.01 | 95 | 1014.8 |
| 20260505165450 | 51 | 131 | 0.0 | 3.0 | 0.00 | 0.01 | 0.01 | 98 | 1014.8 |
| 20260505164946 | 50 | 226 | 0.0 | 2.0 | 0.00 | 0.01 | 0.01 | 98 | 1014.8 |
| 20260505164442 | 51 | 133 | 1.0 | 2.0 | 0.00 | 0.01 | 0.01 | 98 | 1014.7 |
| 20260505163940 | 50 | 163 | 2.0 | 3.0 | 0.00 | 0.01 | 0.01 | 98 | 1014.8 |
| 20260505163438 | 50 | 142 | 2.0 | 2.0 | 0.00 | 0.01 | 0.01 | 98 | 1014.9 |
| 20260505162937 | 50 | 156 | 0.0 | 2.0 | 0.00 | 0.01 | 0.01 | 98 | 1014.9 |
| 20260505162432 | 50 | 152 | 1.0 | 2.0 | 0.00 | 0.01 | 0.01 | 98 | 1014.6 |
| 20260505161930 | 49 | 240 | 0.0 | 0.0 | 0.00 | 0.01 | 0.01 | 98 | 1014.6 |
| 20260505161426 | 50 | 170 | 0.0 | 0.0 | 0.00 | 0.01 | 0.01 | 98 | 1014.6 |
| 20260505160924 | 50 | 166 | 0.0 | 1.0 | 0.00 | 0.01 | 0.01 | 98 | 1014.6 |
| 20260505160422 | 50 | 189 | 0.0 | 0.0 | 0.00 | 0.01 | 0.01 | 98 | 1014.5 |
| 20260505152858 | 49 | 236 | 0.0 | 1.0 | 0.00 | 0.01 | 0.01 | 98 | 1014.6 |
| 20260505152355 | 49 | 211 | 0.0 | 0.0 | 0.00 | 0.01 | 0.01 | 98 | 1014.6 |
| 20260505151855 | 48 | 213 | 0.0 | 0.0 | 0.00 | 0.01 | 0.01 | 98 | 1014.3 |
| 20260505151352 | 48 | 209 | 0.0 | 0.0 | 0.00 | 0.01 | 0.01 | 98 | 1014.4 |
| 20260505150849 | 48 | 161 | 1.0 | 1.0 | 0.00 | 0.01 | 0.01 | 98 | 1014.5 |
| 20260505150347 | 48 | 152 | 0.0 | 1.0 | 0.00 | 0.01 | 0.01 | 98 | 1014.2 |
| 20260505140316 | 48 | 185 | 0.0 | 0.0 | 0.00 | 0.01 | 0.01 | 98 | 1013.8 |
| 20260505130240 | 48 | 197 | 0.0 | 1.0 | 0.00 | 0.01 | 0.01 | 98 | 1013.6 |
| 20260505124731 | 48 | 174 | 0.0 | 2.0 | 0.00 | 0.01 | 0.01 | 98 | 1013.5 |
| 20260505124228 | 48 | 171 | 0.0 | 1.0 | 0.00 | 0.01 | 0.01 | 98 | 1013.5 |
| 20260505123723 | 48 | 212 | 0.0 | 0.0 | 0.00 | 0.01 | 0.01 | 98 | 1013.3 |
| 20260505123220 | 48 | 195 | 0.0 | 0.0 | 0.00 | 0.01 | 0.01 | 98 | 1013.3 |
| 20260505122716 | 48 | 188 | 0.0 | 1.0 | 0.00 | 0.01 | 0.01 | 98 | 1013.2 |
| 20260505122214 | 48 | 184 | 0.0 | 1.0 | 0.00 | 0.01 | 0.01 | 98 | 1013.1 |
| 20260505121710 | 48 | 196 | 0.0 | 1.0 | 0.00 | 0.01 | 0.01 | 98 | 1013.3 |
| 20260505121207 | 48 | 165 | 1.0 | 2.0 | 0.00 | 0.01 | 0.01 | 98 | 1013.3 |
| 20260505120703 | 48 | 165 | 1.0 | 1.0 | 0.00 | 0.01 | 0.01 | 98 | 1013.2 |
| 20260505120159 | 48 | 178 | 0.0 | 1.0 | 0.00 | 0.01 | 0.01 | 98 | 1013.2 |
| 20260505115652 | 48 | 169 | 1.0 | 2.0 | 0.00 | 0.01 | 0.01 | 98 | 1013.2 |
| 20260505115151 | 48 | 168 | 0.0 | 1.0 | 0.00 | 0.01 | 0.01 | 98 | 1013.2 |
| 20260505114648 | 48 | 147 | 0.0 | 2.0 | 0.00 | 0.01 | 0.01 | 98 | 1013.2 |
| 20260505114144 | 48 | 170 | 0.0 | 0.0 | 0.00 | 0.01 | 0.01 | 98 | 1013.3 |
| 20260505113640 | 48 | 171 | 0.0 | 0.0 | 0.00 | 0.01 | 0.01 | 98 | 1013.6 |
| 20260505113137 | 48 | 166 | 1.0 | 1.0 | 0.00 | 0.01 | 0.01 | 98 | 1013.7 |
| 20260505112633 | 48 | 174 | 0.0 | 1.0 | 0.00 | 0.01 | 0.01 | 98 | 1013.7 |
| 20260505112131 | 48 | 151 | 1.0 | 2.0 | 0.00 | 0.01 | 0.01 | 98 | 1013.6 |
| 20260505111625 | 48 | 151 | 1.0 | 2.0 | 0.00 | 0.01 | 0.01 | 98 | 1013.5 |
| 20260505111121 | 48 | 168 | 1.0 | 1.0 | 0.00 | 0.01 | 0.01 | 98 | 1013.6 |
| 20260505110612 | 48 | 181 | 0.0 | 1.0 | 0.00 | 0.01 | 0.01 | 98 | 1013.6 |
| 20260505110109 | 48 | 167 | 0.0 | 1.0 | 0.00 | 0.01 | 0.01 | 98 | 1013.6 |
| 20260505102045 | 47 | 157 | 1.0 | 2.0 | 0.00 | 0.01 | 0.01 | 98 | 1013.6 |
| 20260505101543 | 47 | 167 | 0.0 | 1.0 | 0.00 | 0.01 | 0.01 | 98 | 1013.7 |
| 20260505101039 | 47 | 174 | 1.0 | 2.0 | 0.00 | 0.01 | 0.01 | 98 | 1013.6 |
| 20260505100536 | 47 | 172 | 0.0 | 2.0 | 0.00 | 0.01 | 0.01 | 98 | 1013.5 |
| 20260505100033 | 47 | 166 | 1.0 | 2.0 | 0.00 | 0.01 | 0.01 | 98 | 1013.5 |
| 20260505095529 | 47 | 140 | 1.0 | 2.0 | 0.00 | 0.01 | 0.01 | 98 | 1013.7 |
| 20260505095026 | 47 | 149 | 0.0 | 2.0 | 0.00 | 0.01 | 0.01 | 98 | 1013.8 |
| 20260505094522 | 47 | 215 | 1.0 | 4.0 | 0.00 | 0.01 | 0.01 | 98 | 1013.9 |
| 20260505094018 | 47 | 150 | 0.0 | 3.0 | 0.00 | 0.01 | 0.01 | 98 | 1013.6 |
| 20260505093514 | 47 | 225 | 1.0 | 3.0 | 0.00 | 0.01 | 0.01 | 98 | 1013.5 |
| 20260505093012 | 47 | 189 | 1.0 | 4.0 | 0.00 | 0.01 | 0.01 | 98 | 1013.8 |
| 20260505092509 | 47 | 150 | 1.0 | 2.0 | 0.00 | 0.01 | 0.01 | 98 | 1013.9 |
| 20260505092008 | 47 | 150 | 0.0 | 2.0 | 0.00 | 0.01 | 0.01 | 98 | 1014.1 |
| 20260505091504 | 47 | 217 | 2.0 | 3.0 | 0.00 | 0.01 | 0.01 | 98 | 1014.1 |